TimeCDT,TemperatureF,Dew PointF,Humidity,Sea Level PressureIn,VisibilityMPH,Wind Direction,Wind SpeedMPH,Gust SpeedMPH,PrecipitationIn,Events,Conditions,WindDirDegrees,DateUTC
12:52 AM,42.1,34.0,73,30.04,10.0,NNW,10.4,-,N/A,,Scattered Clouds,330,2013-04-16 05:52:00
1:52 AM,39.0,32.0,76,30.07,10.0,NW,10.4,-,N/A,,Clear,320,2013-04-16 06:52:00
2:52 AM,37.0,30.0,76,30.09,10.0,NW,8.1,-,N/A,,Clear,320,2013-04-16 07:52:00
3:52 AM,35.1,28.9,78,30.11,10.0,WNW,3.5,-,N/A,,Clear,300,2013-04-16 08:52:00
4:52 AM,35.1,28.9,78,30.12,10.0,NNW,6.9,-,N/A,,Clear,330,2013-04-16 09:52:00
5:52 AM,34.0,28.9,82,30.15,10.0,NW,5.8,-,N/A,,Clear,310,2013-04-16 10:52:00
6:52 AM,34.0,28.9,82,30.17,10.0,WNW,4.6,-,N/A,,Clear,300,2013-04-16 11:52:00
7:52 AM,36.0,28.9,76,30.14,10.0,North,15.0,19.6,N/A,,Clear,360,2013-04-16 12:52:00
8:52 AM,39.9,28.9,65,30.20,10.0,North,11.5,18.4,N/A,,Partly Cloudy,360,2013-04-16 13:52:00
9:52 AM,41.0,28.9,62,30.21,10.0,NW,9.2,-,N/A,,Overcast,320,2013-04-16 14:52:00
10:52 AM,42.1,30.0,62,30.23,10.0,North,6.9,-,N/A,,Overcast,10,2013-04-16 15:52:00
11:52 AM,45.0,30.0,56,30.25,10.0,NW,3.5,-,N/A,,Overcast,320,2013-04-16 16:52:00
12:52 PM,45.0,30.0,56,30.23,10.0,North,8.1,-,N/A,,Mostly Cloudy,10,2013-04-16 17:52:00
1:52 PM,48.0,30.9,52,30.21,10.0,NNE,8.1,-,N/A,,Partly Cloudy,30,2013-04-16 18:52:00
2:52 PM,50.0,30.9,48,30.20,10.0,North,6.9,-,N/A,,Overcast,350,2013-04-16 19:52:00
3:52 PM,51.1,33.1,50,30.20,10.0,ENE,3.5,-,N/A,,Overcast,70,2013-04-16 20:52:00
4:52 PM,53.1,33.1,47,30.20,10.0,ENE,6.9,-,N/A,,Overcast,60,2013-04-16 21:52:00
5:52 PM,52.0,32.0,47,30.21,10.0,NNE,6.9,-,N/A,,Overcast,20,2013-04-16 22:52:00
6:52 PM,51.1,33.1,50,30.21,10.0,North,8.1,-,N/A,,Overcast,360,2013-04-16 23:52:00
7:52 PM,51.1,34.0,52,30.21,10.0,NNE,8.1,-,N/A,,Overcast,20,2013-04-17 00:52:00
8:52 PM,50.0,33.1,52,30.22,10.0,NE,9.2,-,N/A,,Overcast,40,2013-04-17 01:52:00
9:52 PM,50.0,34.0,54,30.24,10.0,NE,6.9,-,N/A,,Overcast,40,2013-04-17 02:52:00
10:52 PM,48.9,35.1,59,30.23,10.0,NNE,5.8,-,N/A,,Overcast,30,2013-04-17 03:52:00
11:52 PM,48.9,35.1,59,30.23,10.0,NE,6.9,-,N/A,,Overcast,50,2013-04-17 04:52:00